Flag for Spain Weather past 2 weeks in Alicante, Spain

Now
84 °F

Passing clouds.


Feels Like: 90 °F
Forecast: 73 / 89 °F
Wind: 8 mph from East

Location: Alicante / El Altet

Current Time: Sep 2, 2014 at 7:24:51 PM

Latest Report: Sep 2, 2014 at 7:00 PM


Visibility: N/A

Pressure: 29.86 "Hg

Humidity: 66%

Dew point: 72 °F

Location of AlicanteLocation

Historic Weather in Alicante — Graph

°F

Alicante temperature yesterday

Maximum temperature yesterday: 90 °F (at 3:00 PM)
Minimum temperature yesterday: 70 °F (at 7:00 AM)
Average temperature yesterday: 80 °F

Past Weeks' High & Low Weather Summary

 TemperatureHumidityPressure
High93 °F (Aug 26, 12:30 PM)94% (Aug 28, 12:30 AM)30.12 "Hg (Aug 28, 12:30 AM)
Low70 °F (Aug 19, 6:00 AM)24% (Aug 26, 12:30 PM)29.83 "Hg (Aug 18, 7:30 PM)
Average80 °F70%29.97 "Hg
* Reported Aug 18 6:00 PM — Sep 2 6:30 PM, Alicante, Weather by CustomWeather, © 2014

Note: Actual official high and low records may vary slightly from our data, if they occured in-between our weather recording intervals... More about our weather records

Advertising

Alicante weather history for previous 24 hours

 ConditionsComfort  
Time TempWeatherWind HumidityBarometerVisibility
6:30 PM
Sep 2
84 °FPassing clouds.8 mph62%29.86 "HgN/A
6:00 PM86 °FSunny.10 mph62%29.86 "Hg10 mi
5:30 PM90 °FPassing clouds.5 mph49%29.86 "HgN/A
5:00 PM90 °FPassing clouds.6 mph43%29.86 "HgN/A
4:30 PM90 °FPassing clouds.7 mph46%29.86 "HgN/A
4:00 PM90 °FPassing clouds.8 mph46%29.86 "HgN/A
3:30 PM91 °FPassing clouds.7 mph41%29.86 "HgN/A
3:00 PM91 °FPassing clouds.6 mph41%29.89 "HgN/A
2:30 PM90 °FPassing clouds.7 mph46%29.89 "HgN/A
2:00 PM90 °FPassing clouds.8 mph46%29.89 "HgN/A
1:30 PM90 °FPassing clouds.7 mph46%29.92 "HgN/A
1:00 PM91 °FSunny.2 mph36%29.92 "Hg10 mi
12:30 PM90 °FSunny.2 mph33%29.92 "Hg10 mi
12:00 PM88 °FPassing clouds.3 mph38%29.92 "HgN/A
11:30 AM86 °FPassing clouds.6 mph46%29.95 "HgN/A
11:00 AM84 °FPassing clouds.3 mph51%29.92 "HgN/A
10:30 AM82 °FPassing clouds.3 mph62%29.92 "HgN/A
10:00 AM81 °FPassing clouds.3 mph70%29.92 "HgN/A
9:30 AM79 °FPassing clouds.2 mph79%29.92 "HgN/A
9:00 AM79 °FPassing clouds.2 mph74%29.95 "HgN/A
8:30 AM75 °FPassing clouds.2 mph83%29.92 "HgN/A
8:00 AM73 °FPassing clouds.1 mph83%29.92 "HgN/A
7:30 AM73 °FPassing clouds.1 mph83%29.92 "HgN/A
7:00 AM72 °FPassing clouds.1 mph88%29.92 "HgN/A
6:30 AM72 °FClear.1 mph88%29.92 "Hg10 mi
6:00 AM72 °FClear.1 mph88%29.92 "Hg10 mi
5:30 AM73 °FClear.2 mph89%29.92 "Hg10 mi
4:30 AM73 °FClear.No wind89%29.92 "Hg10 mi
4:00 AM73 °FClear.No wind83%29.92 "Hg10 mi
3:30 AM73 °FClear.2 mph89%29.95 "Hg10 mi
3:00 AM73 °FClear.No wind83%29.95 "Hg10 mi
2:30 AM75 °FClear.No wind78%29.95 "Hg10 mi
2:00 AM75 °FClear.No wind78%29.95 "Hg10 mi
1:30 AM75 °FClear.No wind83%29.95 "Hg10 mi
1:00 AM77 °FClear.No wind83%29.95 "Hg10 mi
12:30 AM77 °FClear.No wind79%29.95 "Hg10 mi
12:00 AM77 °FClear.No wind79%29.95 "Hg10 mi
11:30 PM
Sep 1
79 °FClear.No wind74%29.95 "Hg10 mi
10:30 PM79 °FClear.No wind79%29.95 "Hg10 mi
10:00 PM79 °FClear.No wind79%29.95 "Hg10 mi
9:30 PM81 °FClear.1 mph70%29.92 "Hg10 mi
9:00 PM81 °FSunny.3 mph70%29.92 "Hg10 mi
8:30 PM82 °FPassing clouds.3 mph62%29.92 "HgN/A
8:00 PM84 °FSunny.2 mph58%29.92 "Hg10 mi
7:30 PM84 °FSunny.3 mph58%29.92 "Hg10 mi
7:00 PM84 °FPassing clouds.7 mph55%29.92 "HgN/A
Weather by CustomWeather, © 2014

See weather overviewHow to use our weather pages